Showing default

KANOPUS-V 5, 43876

Orbit data source: Space-Track

KANOPUS-V 5, 43876 is a payload satellite owned by VNIIEM (CIS) in SSO that was launched on Thu, 27 Dec 2018 UTC via a SOYUZ-2-1A launch vehicle from the Vostochny Cosmodrome (VOSTO). Payload-class satellites include a variety of spacecraft equipped with specific instruments for various scientific and technological missions. These include communications satellites like Starlink; space stations such as the ISS; scientific satellites like the Hubble; Earth observation satellites from companies like Planet Labs, Umbra, and HawkEye 360; GPS; miniature CubeSats for education and research; and military/defense satellites.

Loading next visibility...
Identifier
43876, 2018-111A
Orbit
SSO
Last TLE update
8 hours ago
Origin
Manufacturer
VNIIEM
Mission
Operational Civil Imaging
Bus & Motor
KANOPUS, Unknown motor
Mass
473 kg wet, 473 kg dry
Launch date (UTC)
2018-12-27 (6 years ago)
Launch vehicle
SOYUZ-2-1A
Launch site
Vostochny Cosmodrome (VOSTO)
Object type
Payload
Rocket body
Debris
Shape & HBR
Box + 2 Pan, 6 m
Radar Cross Section
1.665 m², Large (>1 m²)

Expand to show TLE details & history

TLE from 8 hours ago
0 KANOPUS-V 5
1 43876U 18111A   25128.93115609  .00003582  00000-0  15718-3 0  9995
2 43876  97.3810  37.0317 0002054  89.5539 270.5933 15.22588468353255
Epoch: 2025-05-08T22:20Z
Definitive object data (Epoch: 2025-05-08T22:20:51.886Z)
Latitude
Longitude
-165.17907°
Altitude
501.117 km
Speed
7.614 km/s
True Right ascension
02h 28m 07s
True Declination
0° 00' 00"
Sunlit
Object was in daylight at TLE epoch
Visualization TLE readout
Latitude
-70.57682°
Longitude
-143.43964°
Altitude
525.671 km
Speed
7.598 km/s
Apparent Right ascension
02h 39m 04s
Apparent Declination
-56° 23' 31"
Sunlit
Object is in daylight
Visualization observer readout
Local Sidereal Time
14:03:52
Azimuth
196.398° SSW
Elevation
-72.543°
Doppler factor
1
Orbital elements
Apogee altitude
496.409 km
Perigee altitude
493.586 km
Semi-major axis
6,873.135 km
Eccentricity
0.0002054
Inclination
97.381°
RAAN
37.0317°
Arg. of periapsis
89.5539°
True anomaly
270.56976°
Mean anomaly
270.5933°
Eccentric anomaly
270.58153°
Mean motion
3.809 °/min
BSTAR
0.00015718
Orbital period
94.51 mins
Loading maneuver chart data...
Loading SW <> Apogee altitude chart data...
Loading historical data...
Loading historical data...
Loading historical data...
Loading historical data...
Loading historical data...
Loading historical data...
Loading historical data...

KANOPUS-V 5 Visibility forecast

Observer location: undefined°, undefined°

Span
Click to sort rows by Start time (UTC) header in descending order
Start Az.
Max El. time (UTC)
Max El. Az.
Max El.
End time (UTC)
End Az.
7 mins2025-05-09 06:47:07.765Z8.59° NNE2025-05-09 06:51:07.765Z222.226° SW41.848°2025-05-09 06:54:07.765Z197.953° SSW
5 mins2025-05-09 17:25:07.765Z131.872° SE2025-05-09 17:27:07.765Z85.133° E30.196°2025-05-09 17:30:07.765Z10.228° NNE
|